Regional Weather Roundup
Issued by NWS

Home | Current Version | Previous Version | Graphics & Text | Print | Product List | Glossary On
Versions: 1 2 3 4 5 6 7 8 9 10 11 12 13 14 15 16 17 18 19 20 21 22 23 24 25 26 27 28 29 30 31 32 33 34 35 36 37 38 39 40 41 42 43 44 45 46 47 48 49 50
101
ASUS43 KLOT 291208
RWRIL

ILLINOIS REGIONAL WEATHER ROUNDUP
NATIONAL WEATHER SERVICE CHICAGO/ROMEOVILLE IL
700 AM CDT SUN MAY 29 2016

NOTE: "FAIR" INDICATES FEW OR NO CLOUDS BELOW 12,000 FEET WITH NO
SIGNIFICANT WEATHER AND/OR OBSTRUCTIONS TO VISIBILITY.

* THESE STATIONS ARE NOT UNDER NWS QUALITY CONTROL. THEY ALSO MAY NOT
  REPORT WEATHER SUCH AS PRECIPITATION OR FOG.

ILZ001-002-007-009-015-016-024-291300-
NORTHWEST ILLINOIS

CITY           SKY/WX    TMP DP  RH WIND       PRES   REMARKS
MOLINE         SUNNY     67  58  72 SW10      29.98R
6HR MIN TEMP:  66; 6HR MAX TEMP:  69;

SAVANNA*       MOSUNNY   65  59  81 W14G20    29.96R
$$

ILZ003-004-008-010-011-017-018-291300-
NORTH CENTRAL ILLINOIS

CITY           SKY/WX    TMP DP  RH WIND       PRES   REMARKS
ROCKFORD       SUNNY     67  60  78 SW8       29.98R
6HR MIN TEMP:  64; 6HR MAX TEMP:  71;

FREEPORT*      SUNNY     63  59  87 SW10      29.97R
ROCHELLE*      SUNNY     65  62  89 S13       29.98R
DE KALB*       SUNNY     64  62  92 S12       29.99S
$$

ILZ005-006-012>014-019>023-291300-
NORTHEAST ILLINOIS

CITY           SKY/WX    TMP DP  RH WIND       PRES   REMARKS
CHICAGO-OHARE  MOSUNNY   66  62  87 SW10      29.98R
6HR MIN TEMP:  63; 6HR MAX TEMP:  67;

CHICAGO-MIDWAY MOSUNNY   68  61  78 SW9       29.99R
6HR MIN TEMP:  65; 6HR MAX TEMP:  71; 6HR PCP: TRACE;

AURORA         SUNNY     67  62  84 S12       29.99R
6HR MIN TEMP:  63; 6HR MAX TEMP:  67;

LANSING*       SUNNY     66  61  83 SW8       30.01S
JOLIET*        SUNNY     69  65  86 CALM      30.00S
WAUKEGAN       SUNNY     66  63  90 SW9       29.96R
6HR MIN TEMP:  61; 6HR MAX TEMP:  66; 6HR PCP:  0.01;

DUPAGE AIRPORT SUNNY     66  61  84 S10       29.98R
6HR MIN TEMP:  61; 6HR MAX TEMP:  66; 6HR PCP: TRACE;

KANKAKEE*      SUNNY     68  64  86 SW9       30.03S
WHEELING       SUNNY     66  61  84 S9        29.99R
6HR MIN TEMP:  63; 6HR MAX TEMP:  68;

MORRIS*        SUNNY     67  63  86 S5        29.99S
ROMEOVILLE*    SUNNY     67  62  81 SW10      30.00S
NORTHERLY ISL    N/A     68  60  75 S5          N/A
NORTHERLY ISL    N/A     68  60  75 S5          N/A
$$

LMZ740>746-291300-
SOUTHERN LAKE MICHIGAN

STATION/POSITION SKY/WX   TEMP    WIND        PRES    VSBY  WAVE
                          AIR SEA DIR/SP/G                  HT/PER
                          (F)     (DEG/KT/KT) (MB)    (MI)  (FT/S)
SOUTHERN BUOY              54 50  170/ 10/ 10 1014.6R         1/ 3
WILMETTE HARBOR            60 52  210/  6/  8   N/A           1
HARRISON CRIB              67     210/ 16/ 17   N/A
BURNHAM HARBOR             68     180/  6/  7   N/A
CALUMET HARBOR             65     200/  8/ 12 1015.1R
BURNS HARBOR               66     200/ 11/ 16 1016.3R
MICHIGAN CITY              66     180/ 11/ 13   N/A
MICHIGAN CITY 6N           62 56  220/  8/ 10   N/A           1/ 2
ST. JOSEPH                 64 61  170/  6/  8   N/A           1/ 3
$$

ILZ025>027-034>036-040-047-049-050-058-095>099-291300-
WEST-CENTRAL ILLINOIS

CITY           SKY/WX    TMP DP  RH WIND       PRES   REMARKS
QUINCY         SUNNY     65  61  87 SW5       30.04R
GALESBURG*     SUNNY     65  59  80 SW10      30.01R
MACOMB*        SUNNY     65  60  82 W13       30.04R
JACKSONVILLE*  SUNNY     68  63  83 S7        30.05R
PITTSFIELD*    SUNNY     68  63  84 SW3       30.06R
$$

ILZ028>032-037-038-041>044-048-051>054-059>061-291300-
CENTRAL ILLINOIS

CITY           SKY/WX    TMP DP  RH WIND       PRES   REMARKS
PONTIAC        SUNNY     69  66  90 S9        30.02F
BLOOMINGTON    SUNNY     66  66 100 S8        30.05R
DECATUR        SUNNY     69  64  84 SW6       30.05R
PEORIA         SUNNY     66  62  87 S7        30.01R
6HR MIN TEMP:  62; 6HR MAX TEMP:  66;

LACON*         SUNNY     68  61  79 S7        29.99S
LINCOLN*       SUNNY     68  66  93 CALM      30.04R
SPRINGFIELD    SUNNY     69  64  84 SW3       30.05R
6HR MIN TEMP:  65; 6HR MAX TEMP:  75;

TAYLORVILLE    SUNNY     67  64  88 S3        30.06R
6HR MIN TEMP:  63; 6HR MAX TEMP:  70;

$$

ILZ033-039-045-046-055>057-062-063-291300-
EAST-CENTRAL ILLINOIS

CITY           SKY/WX    TMP DP  RH WIND       PRES   REMARKS
CHAMPAIGN      SUNNY     69  66  90 SW8       30.05S
RANTOUL*       SUNNY     69  67  92 SW7       30.05S
MATTOON        SUNNY     70  64  81 SW5       30.05S
PARIS*         SUNNY     67  67  99 CALM      30.06F FOG
$$

ILZ079-100>102-291300-
SOUTHWEST ILLINOIS

CITY           SKY/WX    TMP DP  RH WIND       PRES   REMARKS
ALTON          SUNNY     64  63  94 CALM      30.07S
BELLEVILLE     SUNNY     66  66 100 CALM      30.06R
CAHOKIA*       SUNNY     68  65  90 CALM      30.07R
SPARTA*        MOSUNNY   68  66  93 CALM      30.09R
$$

ILZ064>066-069>071-074>076-080>082-084>086-088>090-092>094-291300-
SOUTH-CENTRAL ILLINOIS

CITY           SKY/WX    TMP DP  RH WIND       PRES   REMARKS
CARBONDALE     SUNNY     68  67  96 S3        30.08R FOG
6HR MIN TEMP:  63; 6HR MAX TEMP:  68;

CAIRO*         SUNNY     69  67  95 S5        30.10R
EFFINGHAM*     SUNNY     68  68 100 S3        30.08R
MARION         MOSUNNY   68  68 100 S5        30.09R
MT. VERNON     CLOUDY    66  63  88 CALM      30.09R
CENTRALIA*     SUNNY     70  69  98 S5        30.07R FOG
SALEM*         SUNNY     70  67  93 S3        30.07S FOG
METROPOLIS*    MOSUNNY   69  68  97 CALM      30.10S
$$

ILZ067-068-072-073-078-083-087-091-291300-
SOUTHEAST ILLINOIS

CITY           SKY/WX    TMP DP  RH WIND       PRES   REMARKS
LAWRENCEVILLE  SUNNY     70  68  93 S7        30.07S
FLORA*         SUNNY     68  68  98 S3        30.07S FOG
FAIRFIELD*     MOSUNNY   69  67  95 CALM      30.07R
HARRISBURG*    CLOUDY    67  66  98 CALM      30.09R
ROBINSON*      SUNNY     68  67  96 S5        30.08R
CARMI*         MOSUNNY   67  67  97 S6        30.08R
$$

ABBREVIATIONS USED IN REMARKS
   TC - TEMPERATURE IN CELSIUS
  WCI - WIND CHILL INDEX
   HX - HEAT INDEX
  VSB - VISIBILITY
$$





USA.gov is the U.S. government's official web portal to all federal, state and local government web resources and services.